Location: Eaton
(41.3139°N, 82.0207°W)
Time: 12:28:19
(UTC+00:00)

X-37B - Pass Details

Date: 17 June 2021
Orbit: 383 x 392 km, 45.0° (Epoch: 01 July)

Event Time Altitude Azimuth Distance (km) Brightness Sun altitude
Exits shadow 07:53:22 14° 292° (WNW) 1,196 2.9 -17.2°
Maximum altitude 07:55:49 39° 359° (N) 591 1.9 -16.9°
Drops below altitude 10° 07:58:50 10° 71° (ENE) 1,409 4.2 -16.6°
Sets 08:00:59 0° 79° (E) 2,265 5.2 -16.3°
